Location: Forli
(44.2227°N, 12.0407°E)
Time: 14:38:06
(UTC+02:00)

UWE-3 - Pass Details

Date: 19 April 2026
Orbit: 542 x 613 km, 97.9° (Epoch: 10 May)

Event Time Altitude Azimuth Distance (km) Brightness Sun altitude
Rises 05:21:34 0° 354° (N) 2,739 ? -10.9°
Reaches altitude 10° 05:24:31 10° 330° (NNW) 1,829 ? -10.4°
Maximum altitude 05:26:39 14° 297° (WNW) 1,559 ? -10.0°
Enters shadow 05:28:27 11° 268° (W) 1,744 ? -9.8°
